CIET2: Wichita River Nr Charlie, TX

Data processed at Fri Mar 09 2018 23:57


All information presented herein is the property of the government of the United States of America and may be revised or deleted at any time without prior notice.
Dissemination of this information without the expressed written consent of the Public Affairs Office, Tulsa District U.S. Army Corps of Engineers is strictly prohibited.
These data are gathered electronically and, as presented, have not undergone any form of quality control. These data are not guaranteed to be valid or correct.
Go to home page.
Go to station list.

Upstream stations:

Downstream station:
Previous Day
Next Day
Current Day
    
SHEF ID:       CHWT2     Wichita River nr Charlie, TX
STATION TYPE:  

               PRECIP     STAGE  RIV-FLOW  WTR-TEMP   CONDUCT  BAT-LOAD
                   in        ft       cfs         F   umho/cm      volt
              Ccp-Rev   Ccp-Rev   Ccp-Rev   Ccp-Rev   Ccp-Rev   Ccp-Rev
(US/Central)
03/07 00:00      0.00      4.74        38     57.07      4173     12.65
03/07 01:00      0.00      4.73        37     56.70      4202     12.65
03/07 02:00      0.00      4.73        37     56.30      4230     12.65
03/07 03:00      0.00      4.73        37     55.72      4253     12.60
03/07 04:00      0.00      4.73        37     55.13      4277     12.60
03/07 05:00      0.00      4.73        37     54.57      4305     12.54
03/07 06:00      0.00      4.73        37     54.00      4336     12.48
03/07 07:00      0.00      4.72        36     53.49      4366     12.48
03/07 08:00      0.00      4.72        36     53.02      4397     14.30
03/07 09:00      0.00      4.72        36     52.88      4426     14.94
03/07 10:00      0.00      4.72        36     53.11      4454     14.88
03/07 11:00      0.00      4.73        37     53.64      4479     14.76
03/07 12:00      0.00      4.73        37     54.19      4498     14.71
03/07 13:00      0.00      4.73        37     54.86      4516     14.65
03/07 14:00      0.00      4.72        36     55.53      4532     14.59
03/07 15:00      0.00      4.73        37     56.05      4544     14.06
03/07 16:00      0.00      4.73        37     56.35      4550     14.18
03/07 17:00      0.00      4.72        36     56.50      4551     13.71
03/07 18:00      0.00      4.71        34     56.39      4544     13.48
03/07 19:00      0.00      4.72        36     56.23      4540     12.89
03/07 20:00      0.00      4.72        36     56.01      4532     12.77
03/07 21:00      0.00      4.72        36     55.71      4536     12.71
03/07 22:00      0.00      4.72        36     55.53      4547     12.71
03/07 23:00      0.00      4.72        36     55.42      4572     12.65